Starlink 32367

operational
NORAD ID: 60919 Int'l Des: 2024-154 Owner: SPXS Country: US Constellation: starlink
LEOCIRCULAR

Starlink 32367について

説明を読み込み中...

リアルタイム位置

3D地球を読み込み中...

次回通過

高度履歴

Altitude vs Time

uPlot chart will show altitude changes over time

軌道要素

1 60919U 24154S 25258.60716339 .00000944 00000-0 43995-4 0 9999
2 60919 53.1625 16.7590 0001120 85.4696 274.6433 15.30193281 59533
Epoch: Sep 15, 2025 • Age: 16 hours

現在のステータス

高度 475.8 km
速度 7.63 km/s
衛星直下点 24.91°N, 57.29°W
打ち上げ日 Aug 31, 2024
運用期間 1 years
タイプ internet

技術仕様

分類 Payload
質量 730.00 kg
乾燥質量 700.00 kg
総質量 730.00 kg
長さ 0.30 m
直径 4.10 m
スパン 29.00 m
形状 Box + pan
製造者 SPXS
バスタイプ Starlink V2M
フェーズステータス In Orbit
所有者/国 SPXS/US

大規模コンステレーション

Loading constellations...